Zurück zum Katalog

STARONE D1

AktivKommunikationGEO
NORAD 41904·PAYLOAD·🇧🇷 Brazil

Gestartet Dec 21, 2016 von Guiana Space Centre

Loading…

TLE

AktuellSource: Space-Track

Epoche: Sep 14, 2026, 11:46 UTC

1 41904U 16082B   26257.49072645  .00000000  00000-0  00000-0 0  9994
2 41904   0.0274 125.4092 0002475  55.2375 265.5142  1.00268779 35666

Verfolge STARONE D1 in Echtzeit mit AllMySat

Download on the App Store